EZY8495 EGKK-LSGG

Flight info

Callsign EZY8495
Flight time 1h 12m
Altitude 35000
Route SFD Y47 BENBO UL612 RESMI UM975 PEKIM DCT PILUL DCT PIMUP/N0423F270 DCT PIXIS DCT PIBAT/N0398F230 DCT LUSAR
Aircraft A320/M-SDE3FGHIRWY/LB1

Departure

Time 2026-04-17 08:12
Airport London Gatwick Airport (EGKK)

Arrival

Time 2026-04-17 09:24
Airport Geneva International Airport (LSGG)
Time Latitude Longitude Altitude Speed Heading
2026-04-17 07:07 51.15893 -0.17226 204 ft 0 kts 347°
2026-04-17 08:00 51.15892 -0.17225 212 ft 2 kts 347°
2026-04-17 08:00 51.15867 -0.17216 205 ft 4 kts 347°
2026-04-17 08:01 51.15841 -0.17207 208 ft 4 kts 347°
2026-04-17 08:01 51.15816 -0.17197 204 ft 4 kts 322°
2026-04-17 08:01 51.15808 -0.17169 209 ft 2 kts 258°
2026-04-17 08:01 51.15812 -0.17140 210 ft 1 kts 257°
2026-04-17 08:06 51.15805 -0.17188 204 ft 16 kts 258°
2026-04-17 08:06 51.15791 -0.17292 204 ft 8 kts 258°
2026-04-17 08:06 51.15781 -0.17368 206 ft 8 kts 258°
2026-04-17 08:07 51.15764 -0.17475 205 ft 9 kts 244°
2026-04-17 08:07 51.15714 -0.17495 204 ft 7 kts 170°
2026-04-17 08:07 51.15642 -0.17472 204 ft 20 kts 169°
2026-04-17 08:07 51.15524 -0.17436 206 ft 11 kts 167°
2026-04-17 08:08 51.15459 -0.17411 214 ft 9 kts 165°
2026-04-17 08:08 51.15405 -0.17389 211 ft 7 kts 165°
2026-04-17 08:08 51.15362 -0.17372 204 ft 6 kts 166°
2026-04-17 08:08 51.15292 -0.17348 206 ft 10 kts 168°
2026-04-17 08:09 51.15236 -0.17305 208 ft 8 kts 144°
2026-04-17 08:09 51.15196 -0.17261 207 ft 5 kts 144°
2026-04-17 08:09 51.15186 -0.17249 209 ft 0 kts 144°
2026-04-17 08:10 51.15178 -0.17240 206 ft 7 kts 144°
2026-04-17 08:10 51.15133 -0.17207 206 ft 6 kts 180°
2026-04-17 08:10 51.15088 -0.17273 215 ft 11 kts 233°
2026-04-17 08:11 51.15046 -0.17353 209 ft 7 kts 247°
2026-04-17 08:11 51.15040 -0.17400 206 ft 0 kts 258°
2026-04-17 08:11 51.15035 -0.17432 213 ft 14 kts 258°
2026-04-17 08:11 51.14956 -0.18004 205 ft 89 kts 257°
2026-04-17 08:12 51.14779 -0.19278 207 ft 144 kts 258°
2026-04-17 08:12 51.14544 -0.20981 628 ft 153 kts 257°
2026-04-17 08:12 51.14288 -0.22704 1116 ft 172 kts 253°
2026-04-17 08:12 51.13998 -0.24588 1691 ft 180 kts 256°
2026-04-17 08:13 51.13716 -0.26639 2051 ft 200 kts 256°
2026-04-17 08:13 51.13410 -0.28903 2418 ft 217 kts 256°
2026-04-17 08:13 51.13090 -0.31266 3307 ft 216 kts 255°
2026-04-17 08:14 51.12453 -0.35944 4831 ft 219 kts 254°
2026-04-17 08:14 51.12130 -0.38300 4975 ft 217 kts 255°
2026-04-17 08:14 51.11580 -0.40499 5011 ft 214 kts 230°
2026-04-17 08:14 51.10391 -0.41860 5013 ft 214 kts 199°
2026-04-17 08:15 51.08904 -0.41910 5034 ft 223 kts 169°
2026-04-17 08:15 51.07384 -0.41303 5708 ft 229 kts 175°
2026-04-17 08:15 51.05725 -0.41062 6143 ft 248 kts 181°
2026-04-17 08:15 51.03975 -0.40967 6864 ft 255 kts 181°
2026-04-17 08:16 51.02186 -0.40873 7678 ft 259 kts 181°
2026-04-17 08:16 51.00367 -0.40752 8499 ft 264 kts 181°
2026-04-17 08:16 50.98521 -0.40597 9320 ft 267 kts 180°
2026-04-17 08:16 50.96650 -0.40404 10102 ft 272 kts 180°
2026-04-17 08:17 50.94747 -0.40184 10852 ft 277 kts 179°
2026-04-17 08:17 50.92810 -0.39947 11562 ft 282 kts 179°
2026-04-17 08:17 50.90839 -0.39699 12293 ft 285 kts 179°
2026-04-17 08:17 50.88852 -0.39446 12985 ft 289 kts 179°
2026-04-17 08:18 50.86835 -0.39191 13682 ft 293 kts 179°
2026-04-17 08:18 50.85488 -0.39019 14134 ft 294 kts 179°
2026-04-17 08:18 50.83454 -0.38385 14796 ft 303 kts 165°
2026-04-17 08:18 50.81530 -0.36933 15437 ft 313 kts 151°
2026-04-17 08:19 50.79704 -0.35021 16085 ft 316 kts 151°
2026-04-17 08:19 50.77863 -0.33098 16713 ft 319 kts 151°
2026-04-17 08:19 50.76005 -0.31164 17315 ft 322 kts 151°
2026-04-17 08:19 50.74120 -0.29211 17905 ft 325 kts 152°
2026-04-17 08:20 50.72221 -0.27250 18486 ft 328 kts 152°
2026-04-17 08:20 50.70304 -0.25274 19038 ft 331 kts 152°
2026-04-17 08:20 50.68340 -0.23250 19292 ft 346 kts 152°
2026-04-17 08:20 50.66280 -0.21114 19424 ft 363 kts 151°
2026-04-17 08:21 50.64129 -0.18868 19558 ft 379 kts 151°
2026-04-17 08:21 50.61897 -0.16527 19741 ft 391 kts 150°
2026-04-17 08:21 50.59617 -0.14127 20138 ft 397 kts 150°
2026-04-17 08:21 50.57315 -0.11703 20609 ft 400 kts 150°
2026-04-17 08:22 50.54993 -0.09264 21087 ft 403 kts 151°
2026-04-17 08:22 50.52651 -0.06814 21540 ft 405 kts 151°
2026-04-17 08:22 50.50290 -0.04354 21988 ft 408 kts 151°
2026-04-17 08:22 50.47915 -0.01888 22417 ft 411 kts 152°
2026-04-17 08:23 50.45523 0.00591 22846 ft 414 kts 152°
2026-04-17 08:23 50.43112 0.03083 23218 ft 417 kts 150°
2026-04-17 08:23 50.40666 0.05607 23496 ft 424 kts 150°
2026-04-17 08:23 50.38194 0.08163 23857 ft 427 kts 150°
2026-04-17 08:24 50.35706 0.10742 24238 ft 431 kts 150°
2026-04-17 08:24 50.33200 0.13337 24604 ft 433 kts 150°
2026-04-17 08:24 50.30678 0.15943 24963 ft 436 kts 150°
2026-04-17 08:24 50.28135 0.18567 25307 ft 439 kts 150°
2026-04-17 08:25 50.25583 0.21194 25656 ft 441 kts 150°
2026-04-17 08:25 50.23011 0.23831 25993 ft 443 kts 150°
2026-04-17 08:25 50.20426 0.26474 26317 ft 446 kts 150°
2026-04-17 08:25 50.17826 0.29136 26644 ft 448 kts 150°
2026-04-17 08:26 50.15216 0.31817 26966 ft 451 kts 150°
2026-04-17 08:26 50.12592 0.34516 27294 ft 453 kts 150°
2026-04-17 08:26 50.09959 0.37227 27609 ft 455 kts 150°
2026-04-17 08:26 50.07315 0.39944 27919 ft 457 kts 150°
2026-04-17 08:27 50.04644 0.42676 28212 ft 459 kts 150°
2026-04-17 08:27 50.01969 0.45408 28487 ft 461 kts 150°
2026-04-17 08:27 49.99284 0.48145 28759 ft 463 kts 150°
2026-04-17 08:27 49.96582 0.50893 29013 ft 466 kts 150°
2026-04-17 08:28 49.93863 0.53654 29264 ft 468 kts 150°
2026-04-17 08:28 49.91135 0.56423 29516 ft 469 kts 150°
2026-04-17 08:28 49.88400 0.59200 29783 ft 471 kts 150°
2026-04-17 08:28 49.85667 0.62031 30022 ft 475 kts 146°
2026-04-17 08:29 49.83083 0.65242 30271 ft 477 kts 143°
2026-04-17 08:29 49.80511 0.68504 30599 ft 477 kts 143°
2026-04-17 08:29 49.77979 0.71699 30960 ft 475 kts 144°
2026-04-17 08:29 49.75382 0.74960 31294 ft 474 kts 144°
2026-04-17 08:30 49.72823 0.78165 31628 ft 473 kts 144°
2026-04-17 08:30 49.70263 0.81373 31933 ft 473 kts 144°
2026-04-17 08:30 49.67714 0.84567 32247 ft 472 kts 144°
2026-04-17 08:30 49.65158 0.87760 32563 ft 472 kts 144°
2026-04-17 08:31 49.62606 0.90940 32868 ft 472 kts 144°
2026-04-17 08:31 49.60056 0.94114 33190 ft 471 kts 144°
2026-04-17 08:31 49.57512 0.97279 33493 ft 470 kts 144°
2026-04-17 08:31 49.54973 1.00439 33797 ft 469 kts 144°
2026-04-17 08:32 49.52430 1.03604 34071 ft 469 kts 144°
2026-04-17 08:32 49.49897 1.06749 34356 ft 469 kts 144°
2026-04-17 08:32 49.47356 1.09894 34638 ft 468 kts 144°
2026-04-17 08:32 49.44816 1.13023 34915 ft 468 kts 144°
2026-04-17 08:33 49.42274 1.16149 35166 ft 468 kts 144°
2026-04-17 08:33 49.37196 1.22391 35250 ft 468 kts 144°
2026-04-17 08:34 49.32158 1.28590 35248 ft 467 kts 144°
2026-04-17 08:34 49.27082 1.34813 35248 ft 467 kts 144°
2026-04-17 08:35 49.22007 1.41024 35249 ft 467 kts 144°
2026-04-17 08:35 49.16923 1.47216 35247 ft 467 kts 144°
2026-04-17 08:36 49.11839 1.53389 35245 ft 467 kts 144°
2026-04-17 08:36 49.06751 1.59549 35243 ft 466 kts 144°
2026-04-17 08:37 49.01671 1.65701 35242 ft 467 kts 144°
2026-04-17 08:37 48.96585 1.71839 35240 ft 467 kts 144°
2026-04-17 08:38 48.91494 1.77969 35238 ft 467 kts 144°
2026-04-17 08:38 48.86398 1.84092 35240 ft 467 kts 144°
2026-04-17 08:39 48.81294 1.90191 35241 ft 467 kts 145°
2026-04-17 08:39 48.76184 1.96272 35241 ft 467 kts 145°
2026-04-17 08:40 48.71074 2.02348 35240 ft 467 kts 144°
2026-04-17 08:40 48.65935 2.08449 35241 ft 466 kts 145°
2026-04-17 08:41 48.60859 2.14454 35238 ft 466 kts 145°
2026-04-17 08:41 48.56053 2.21151 35237 ft 471 kts 131°
2026-04-17 08:42 48.52273 2.29246 35235 ft 472 kts 127°
2026-04-17 08:42 48.48537 2.37388 35233 ft 472 kts 127°
2026-04-17 08:43 48.44778 2.45512 35235 ft 472 kts 127°
2026-04-17 08:43 48.41022 2.53638 35237 ft 472 kts 127°
2026-04-17 08:44 48.37274 2.61752 35236 ft 473 kts 127°
2026-04-17 08:44 48.33505 2.69864 35239 ft 473 kts 127°
2026-04-17 08:45 48.29728 2.77954 35243 ft 473 kts 127°
2026-04-17 08:45 48.25325 2.85171 35238 ft 467 kts 144°
2026-04-17 08:46 48.20189 2.91105 35237 ft 466 kts 145°
2026-04-17 08:46 48.15048 2.97034 35233 ft 467 kts 145°
2026-04-17 08:47 48.09898 3.02953 35232 ft 466 kts 148°
2026-04-17 08:47 48.04217 3.07390 35232 ft 459 kts 161°
2026-04-17 08:48 47.98322 3.11090 35233 ft 460 kts 160°
2026-04-17 08:48 47.92422 3.14822 35234 ft 460 kts 160°
2026-04-17 08:49 47.86521 3.18539 35237 ft 461 kts 160°
2026-04-17 08:49 47.80607 3.22235 35236 ft 461 kts 160°
2026-04-17 08:50 47.74690 3.25920 35237 ft 461 kts 161°
2026-04-17 08:50 47.68776 3.29593 35237 ft 461 kts 161°
2026-04-17 08:51 47.62857 3.33269 35239 ft 461 kts 161°
2026-04-17 08:51 47.56934 3.36940 35238 ft 461 kts 161°
2026-04-17 08:52 47.51015 3.40610 35233 ft 461 kts 161°
2026-04-17 08:52 47.45087 3.44261 35235 ft 462 kts 161°
2026-04-17 08:53 47.39150 3.47899 35239 ft 462 kts 161°
2026-04-17 08:53 47.33214 3.51533 35241 ft 462 kts 160°
2026-04-17 08:54 47.27284 3.55172 35246 ft 462 kts 161°
2026-04-17 08:54 47.21354 3.58803 35242 ft 462 kts 161°
2026-04-17 08:55 47.15419 3.62420 35243 ft 462 kts 161°
2026-04-17 08:55 47.09487 3.66019 35242 ft 462 kts 161°
2026-04-17 08:56 47.03536 3.69620 35242 ft 462 kts 161°
2026-04-17 08:56 46.97783 3.73852 35245 ft 467 kts 147°
2026-04-17 08:56 46.95300 3.76936 35242 ft 470 kts 136°
2026-04-17 08:57 46.93212 3.80628 35239 ft 473 kts 125°
2026-04-17 08:57 46.90766 3.87769 35235 ft 475 kts 111°
2026-04-17 08:58 46.87983 3.98302 35231 ft 475 kts 112°
2026-04-17 08:58 46.85592 4.07240 35231 ft 476 kts 111°
2026-04-17 08:59 46.83571 4.14789 35231 ft 477 kts 112°
2026-04-17 08:59 46.81156 4.23809 35231 ft 477 kts 110°
2026-04-17 09:00 46.79540 4.33188 35234 ft 477 kts 101°
2026-04-17 09:00 46.78169 4.42661 35239 ft 477 kts 102°
2026-04-17 09:01 46.76775 4.52114 35241 ft 477 kts 102°
2026-04-17 09:01 46.75380 4.61562 35248 ft 476 kts 102°
2026-04-17 09:02 46.73977 4.71009 34935 ft 477 kts 102°
2026-04-17 09:02 46.73271 4.75742 34113 ft 481 kts 102°
2026-04-17 09:02 46.72561 4.80487 33051 ft 489 kts 102°
2026-04-17 09:02 46.71834 4.85354 31981 ft 496 kts 102°
2026-04-17 09:03 46.71095 4.90293 30953 ft 500 kts 102°
2026-04-17 09:03 46.70345 4.95281 30273 ft 495 kts 102°
2026-04-17 09:03 46.69604 5.00167 29536 ft 492 kts 102°
2026-04-17 09:03 46.68865 5.05016 28821 ft 488 kts 102°
2026-04-17 09:04 46.68132 5.09822 28132 ft 484 kts 102°
2026-04-17 09:04 46.67404 5.14578 27453 ft 479 kts 102°
2026-04-17 09:04 46.66681 5.19290 26793 ft 474 kts 102°
2026-04-17 09:04 46.65971 5.23944 26187 ft 468 kts 102°
2026-04-17 09:05 46.65278 5.28539 25575 ft 463 kts 102°
2026-04-17 09:05 46.64594 5.33103 24973 ft 458 kts 102°
2026-04-17 09:05 46.63918 5.37597 24386 ft 452 kts 102°
2026-04-17 09:05 46.63246 5.42035 23818 ft 446 kts 102°
2026-04-17 09:06 46.62576 5.46414 23268 ft 441 kts 102°
2026-04-17 09:06 46.61909 5.50742 22744 ft 435 kts 102°
2026-04-17 09:06 46.61250 5.55003 22251 ft 429 kts 102°
2026-04-17 09:06 46.60593 5.59211 21773 ft 423 kts 102°
2026-04-17 09:07 46.59939 5.63349 21313 ft 417 kts 102°
2026-04-17 09:07 46.59294 5.67424 20842 ft 412 kts 102°
2026-04-17 09:07 46.58662 5.71475 20389 ft 408 kts 102°
2026-04-17 09:07 46.57962 5.75439 19920 ft 403 kts 109°
2026-04-17 09:08 46.56820 5.79129 19453 ft 399 kts 120°
2026-04-17 09:08 46.55238 5.82409 18982 ft 395 kts 131°
2026-04-17 09:08 46.53283 5.85183 18490 ft 391 kts 142°
2026-04-17 09:08 46.51082 5.87464 17999 ft 388 kts 146°
2026-04-17 09:09 46.48863 5.89679 17497 ft 386 kts 146°
2026-04-17 09:09 46.46663 5.91889 16997 ft 384 kts 146°
2026-04-17 09:09 46.44476 5.94093 16489 ft 381 kts 145°
2026-04-17 09:09 46.42296 5.96284 16046 ft 380 kts 146°
2026-04-17 09:10 46.38136 6.00440 15780 ft 339 kts 148°
2026-04-17 09:10 46.36060 6.01797 15576 ft 321 kts 167°
2026-04-17 09:10 46.33884 6.02021 15362 ft 312 kts 188°
2026-04-17 09:11 46.31806 6.01220 14982 ft 308 kts 207°
2026-04-17 09:11 46.30064 5.99480 14519 ft 306 kts 225°
2026-04-17 09:11 46.28565 5.97277 14058 ft 310 kts 227°
2026-04-17 09:11 46.27074 5.95080 13901 ft 303 kts 226°
2026-04-17 09:12 46.25611 5.92940 13447 ft 298 kts 226°
2026-04-17 09:12 46.24155 5.90825 12907 ft 294 kts 226°
2026-04-17 09:12 46.22710 5.88741 12335 ft 292 kts 225°
2026-04-17 09:12 46.21278 5.86671 11769 ft 290 kts 225°
2026-04-17 09:13 46.19860 5.84604 11307 ft 289 kts 226°
2026-04-17 09:13 46.18442 5.82534 10875 ft 291 kts 225°
2026-04-17 09:13 46.17009 5.80451 10445 ft 294 kts 225°
2026-04-17 09:13 46.15575 5.78375 10184 ft 289 kts 225°
2026-04-17 09:14 46.14135 5.76291 9690 ft 294 kts 225°
2026-04-17 09:14 46.12725 5.74251 9366 ft 283 kts 225°
2026-04-17 09:14 46.11349 5.72260 9043 ft 279 kts 225°
2026-04-17 09:14 46.09970 5.70262 8982 ft 282 kts 225°
2026-04-17 09:15 46.08585 5.68258 8795 ft 279 kts 225°
2026-04-17 09:15 46.07260 5.66346 8621 ft 260 kts 225°
2026-04-17 09:15 46.06010 5.64544 8351 ft 248 kts 224°
2026-04-17 09:15 46.04601 5.63133 8108 ft 248 kts 199°
2026-04-17 09:16 46.02922 5.62868 7593 ft 244 kts 171°
2026-04-17 09:16 46.01317 5.63571 7261 ft 240 kts 150°
2026-04-17 09:16 46.00036 5.65125 7227 ft 245 kts 125°
2026-04-17 09:16 45.99356 5.67345 7119 ft 245 kts 98°
2026-04-17 09:17 45.99472 5.69760 7043 ft 245 kts 71°
2026-04-17 09:17 46.00128 5.72025 7025 ft 246 kts 66°
2026-04-17 09:17 46.00813 5.74285 7023 ft 246 kts 66°
2026-04-17 09:17 46.01494 5.76539 7024 ft 245 kts 66°
2026-04-17 09:18 46.02177 5.78790 7013 ft 246 kts 64°
2026-04-17 09:18 46.03145 5.80812 6773 ft 246 kts 47°
2026-04-17 09:18 46.04343 5.82556 6473 ft 244 kts 44°
2026-04-17 09:18 46.05540 5.84251 6148 ft 238 kts 45°
2026-04-17 09:19 46.06689 5.85911 5844 ft 230 kts 45°
2026-04-17 09:19 46.07817 5.87551 5534 ft 230 kts 45°
2026-04-17 09:19 46.08909 5.89140 5237 ft 222 kts 45°
2026-04-17 09:19 46.09993 5.90718 4941 ft 216 kts 45°
2026-04-17 09:20 46.11036 5.92234 4681 ft 210 kts 45°
2026-04-17 09:20 46.12050 5.93711 4390 ft 205 kts 45°
2026-04-17 09:20 46.13037 5.95150 4119 ft 199 kts 45°
2026-04-17 09:20 46.14000 5.96555 3854 ft 195 kts 45°
2026-04-17 09:21 46.14932 5.97912 3602 ft 185 kts 45°
2026-04-17 09:21 46.15814 5.99200 3365 ft 176 kts 45°
2026-04-17 09:21 46.16652 6.00424 3134 ft 167 kts 45°
2026-04-17 09:21 46.17443 6.01581 2936 ft 157 kts 45°
2026-04-17 09:22 46.18205 6.02694 2728 ft 154 kts 44°
2026-04-17 09:22 46.18955 6.03789 2508 ft 153 kts 45°
2026-04-17 09:22 46.19702 6.04883 2310 ft 151 kts 44°
2026-04-17 09:22 46.20426 6.05945 2106 ft 150 kts 45°
2026-04-17 09:23 46.21142 6.07030 1857 ft 148 kts 46°
2026-04-17 09:23 46.21872 6.08082 1683 ft 148 kts 43°
2026-04-17 09:23 46.22601 6.09130 1498 ft 148 kts 46°
2026-04-17 09:23 46.23297 6.10150 1406 ft 127 kts 44°
2026-04-17 09:24 46.23789 6.10870 1378 ft 76 kts 45°
2026-04-17 09:24 46.24079 6.11299 1373 ft 51 kts 45°
2026-04-17 09:24 46.24248 6.11552 1372 ft 28 kts 53°
2026-04-17 09:24 46.24323 6.11759 1370 ft 19 kts 72°
2026-04-17 09:25 46.24342 6.11889 1366 ft 10 kts 96°
2026-04-17 09:25 46.24292 6.11937 1363 ft 10 kts 190°
2026-04-17 09:25 46.24245 6.11873 1362 ft 9 kts 227°
2026-04-17 09:25 46.24208 6.11820 1363 ft 8 kts 224°
2026-04-17 09:26 46.24159 6.11753 1365 ft 9 kts 221°
2026-04-17 09:26 46.24112 6.11694 1366 ft 8 kts 222°
2026-04-17 09:26 46.24080 6.11647 1367 ft 8 kts 229°
2026-04-17 09:26 46.24046 6.11588 1370 ft 6 kts 231°
2026-04-17 09:27 46.23996 6.11515 1370 ft 18 kts 224°
2026-04-17 09:27 46.23920 6.11401 1375 ft 13 kts 226°
2026-04-17 09:27 46.23868 6.11323 1377 ft 9 kts 226°
2026-04-17 09:27 46.23800 6.11220 1378 ft 16 kts 226°
2026-04-17 09:28 46.23726 6.11111 1381 ft 12 kts 225°
2026-04-17 09:28 46.23685 6.11076 1389 ft 5 kts 184°
2026-04-17 09:28 46.23628 6.11129 1402 ft 10 kts 137°
2026-04-17 09:28 46.23577 6.11163 1396 ft 7 kts 200°
2026-04-17 09:29 46.23544 6.11121 1395 ft 7 kts 224°
2026-04-17 09:29 46.23492 6.11044 1397 ft 13 kts 226°
2026-04-17 09:29 46.23427 6.10948 1399 ft 14 kts 225°
2026-04-17 09:29 46.23363 6.10858 1396 ft 11 kts 224°
2026-04-17 09:30 46.23313 6.10803 1397 ft 8 kts 203°
2026-04-17 09:30 46.23263 6.10782 1396 ft 7 kts 196°
2026-04-17 09:30 46.23228 6.10750 1393 ft 5 kts 226°
2026-04-17 09:30 46.23194 6.10699 1398 ft 7 kts 226°
2026-04-17 09:31 46.23169 6.10665 1393 ft 2 kts 208°
2026-04-17 09:31 46.23150 6.10673 1393 ft 2 kts 146°
2026-04-17 09:31 46.23141 6.10686 1393 ft 1 kts 135°
2026-04-17 09:31 46.23135 6.10695 1393 ft 1 kts 136°
2026-04-17 09:32 46.23131 6.10700 1393 ft 0 kts 136°
2026-04-17 09:32 46.23129 6.10702 1393 ft 0 kts 136°